Warsaw, IN

3:04 AM EDT on May 22, 2018 (GMT -0400)
Warsaw Municipal

Weather History for KASW - April, 2014

Change the Weather History Date:

Sunday, April 20, 2014

  Actual Average Record
Temperature  
Mean Temperature 53 °F -  
Max Temperature 71 °F 62 °F 82 °F (1948)
Min Temperature 35 °F 41 °F 25 °F (1983)
Degree Days  
Heating Degree Days 12    
Growing Degree Days 3 (Base 50)    
Moisture  
Dew Point 32 °F    
Average Humidity 47    
Maximum Humidity 81    
Minimum Humidity 22    
Precipitation  
Precipitation 0.00 in - - ()
Sea Level Pressure  
Sea Level Pressure 30.22 in    
Wind  
Wind Speed 5 mph (SSE)    
Max Wind Speed 8 mph    
Max Gust Speed -    
Visibility 10 miles    
Events      
Averages and records for this station are not official NWS values.
T = Trace of Precipitation, MM = Missing Value Source: NWS Daily Summary

Daily Weather History Graph

Daily Weather History Graph

Search for Another Location

Airport or City:

Astronomy

Apr. 20, 2014 Rise Set
Actual Time 6:56 AM EDT 8:28 PM EDT
Civil Twilight 6:27 AM EDT 8:57 PM EDT
Nautical Twilight 5:52 AM EDT 9:33 PM EDT
Astronomical Twilight 5:15 AM EDT 10:10 PM EDT
Moon 1:09 AM EDT (4/20) 11:14 AM EDT (4/20)
Length of Visible Light 14h 30m
Length of Day
13h 32m
Waning Gibbous, 69% of the Moon is Illuminated
Apr 20
Waning Gibbous
Apr 22
Last Quarter
Apr 29
New
May 6
First Quarter
May 14
Full

Hourly Weather History & Observations

Time (EDT) Temp. Windchill Dew Point Humidity Pressure Visibility Wind Dir Wind Speed Gust Speed Precip Events Conditions
12:15 AM 44.6 °F 40.2 °F 26.6 °F 49% 30.30 in 10.0 mi East 8.1 mph - N/A   Clear
12:35 AM 42.8 °F 39.3 °F 26.6 °F 53% 30.31 in 10.0 mi East 5.8 mph - N/A   Clear
12:55 AM 42.8 °F 40.1 °F 26.6 °F 53% 30.32 in 10.0 mi East 4.6 mph - N/A   Clear
1:15 AM 42.8 °F 38.6 °F 28.4 °F 57% 30.31 in 10.0 mi ESE 6.9 mph - N/A   Clear
1:35 AM 41.0 °F 37.1 °F 28.4 °F 61% 30.30 in 10.0 mi ESE 5.8 mph - N/A   Clear
1:55 AM 39.2 °F 35.9 °F 28.4 °F 65% 30.29 in 10.0 mi East 4.6 mph - N/A   Clear
2:15 AM 39.2 °F 35.9 °F 30.2 °F 70% 30.29 in 10.0 mi ESE 4.6 mph - N/A   Clear
2:35 AM 41.0 °F 38.0 °F 28.4 °F 61% 30.29 in 10.0 mi ESE 4.6 mph - N/A   Clear
2:55 AM 41.0 °F 37.1 °F 28.4 °F 61% 30.28 in 10.0 mi ESE 5.8 mph - N/A   Clear
3:15 AM 41.0 °F 36.4 °F 30.2 °F 65% 30.29 in 10.0 mi ESE 6.9 mph - N/A   Clear
3:35 AM 39.2 °F 35.9 °F 30.2 °F 70% 30.29 in 10.0 mi ESE 4.6 mph - N/A   Clear
3:55 AM 39.2 °F 35.9 °F 30.2 °F 70% 30.29 in 10.0 mi ESE 4.6 mph - N/A   Clear
4:15 AM 39.2 °F 35.9 °F 30.2 °F 70% 30.28 in 10.0 mi ESE 4.6 mph - N/A   Clear
4:35 AM 37.4 °F 33.8 °F 30.2 °F 75% 30.28 in 10.0 mi ESE 4.6 mph - N/A   Clear
4:55 AM 37.4 °F 32.8 °F 30.2 °F 75% 30.28 in 10.0 mi ESE 5.8 mph - N/A   Clear
5:15 AM 37.4 °F 34.9 °F 30.2 °F 75% 30.28 in 10.0 mi ESE 3.5 mph - N/A   Clear
5:35 AM 37.4 °F 34.9 °F 30.2 °F 75% 30.28 in 10.0 mi ESE 3.5 mph - N/A   Clear
5:55 AM 37.4 °F 33.8 °F 30.2 °F 75% 30.28 in 10.0 mi ESE 4.6 mph - N/A   Clear
6:15 AM 35.6 °F 32.8 °F 30.2 °F 81% 30.27 in 10.0 mi ESE 3.5 mph - N/A   Clear
6:35 AM 35.6 °F 32.8 °F 30.2 °F 81% 30.26 in 10.0 mi ESE 3.5 mph - N/A   Clear
6:55 AM 35.6 °F 32.8 °F 30.2 °F 81% 30.27 in 10.0 mi ESE 3.5 mph - N/A   Clear
7:15 AM 35.6 °F 32.8 °F 30.2 °F 81% 30.27 in 10.0 mi ESE 3.5 mph - N/A   Clear
7:35 AM 35.6 °F 31.7 °F 30.2 °F 81% 30.28 in 10.0 mi ESE 4.6 mph - N/A   Clear
7:55 AM 39.2 °F 35.9 °F 32.0 °F 75% 30.28 in 10.0 mi ESE 4.6 mph - N/A   Clear
8:15 AM 41.0 °F 37.1 °F 32.0 °F 70% 30.28 in 10.0 mi ESE 5.8 mph - N/A   Clear
8:35 AM 42.8 °F 38.6 °F 32.0 °F 66% 30.28 in 10.0 mi ESE 6.9 mph - N/A   Clear
8:55 AM 44.6 °F 42.2 °F 32.0 °F 61% 30.28 in 10.0 mi SE 4.6 mph - N/A   Clear
9:15 AM 46.4 °F 44.3 °F 32.0 °F 57% 30.28 in 10.0 mi ESE 4.6 mph - N/A   Clear
9:35 AM 50.0 °F - 32.0 °F 50% 30.28 in 10.0 mi SE 4.6 mph - N/A   Clear
9:55 AM 51.8 °F - 33.8 °F 50% 30.27 in 10.0 mi South 4.6 mph - N/A   Clear
10:15 AM 53.6 °F - 32.0 °F 44% 30.27 in 10.0 mi SE 5.8 mph - N/A   Clear
10:35 AM 57.2 °F - 32.0 °F 38% 30.26 in 10.0 mi SSE 5.8 mph - N/A   Clear
10:55 AM 59.0 °F - 32.0 °F 36% 30.26 in 10.0 mi South 5.8 mph - N/A   Clear
11:15 AM 59.0 °F - 32.0 °F 36% 30.26 in 10.0 mi SSW 4.6 mph - N/A   Clear
11:35 AM 60.8 °F - 32.0 °F 34% 30.26 in 10.0 mi SSE 4.6 mph - N/A   Clear
11:55 AM 60.8 °F - 32.0 °F 34% 30.25 in 10.0 mi SSW 5.8 mph - N/A   Clear
12:15 PM 62.6 °F - 33.8 °F 34% 30.24 in 10.0 mi SW 4.6 mph - N/A   Clear
12:35 PM 62.6 °F - 33.8 °F 34% 30.24 in 10.0 mi SSE 5.8 mph - N/A   Clear
12:55 PM 64.4 °F - 33.8 °F 32% 30.24 in 10.0 mi South 5.8 mph - N/A   Clear
1:15 PM 64.4 °F - 33.8 °F 32% 30.23 in 10.0 mi South 4.6 mph - N/A   Clear
1:35 PM 66.2 °F - 33.8 °F 30% 30.22 in 10.0 mi South 6.9 mph - N/A   Clear
1:55 PM 68.0 °F - 33.8 °F 28% 30.21 in 10.0 mi SW 5.8 mph - N/A   Clear
2:15 PM 68.0 °F - 32.0 °F 26% 30.20 in 10.0 mi SSE 5.8 mph - N/A   Clear
2:35 PM 69.8 °F - 32.0 °F 25% 30.20 in 10.0 mi SSW 5.8 mph - N/A   Clear
2:55 PM 69.8 °F - 32.0 °F 25% 30.19 in 10.0 mi SW 6.9 mph - N/A   Clear
3:15 PM 69.8 °F - 32.0 °F 25% 30.19 in 10.0 mi SSW 6.9 mph - N/A   Clear
3:35 PM 71.6 °F - 30.2 °F 22% 30.18 in 10.0 mi SW 5.8 mph - N/A   Clear
3:55 PM 71.6 °F - 32.0 °F 23% 30.17 in 10.0 mi South 4.6 mph - N/A   Clear
4:15 PM 71.6 °F - 32.0 °F 23% 30.16 in 10.0 mi SSW 5.8 mph - N/A   Clear
4:35 PM 71.6 °F - 33.8 °F 25% 30.16 in 10.0 mi WSW 3.5 mph - N/A   Clear
4:55 PM 71.6 °F - 32.0 °F 23% 30.15 in 10.0 mi SSW 5.8 mph - N/A   Clear
5:15 PM 71.6 °F - 32.0 °F 23% 30.14 in 10.0 mi WSW 3.5 mph - N/A   Clear
5:55 PM 71.6 °F - 32.0 °F 23% 30.14 in 10.0 mi SW 6.9 mph - N/A   Clear
6:15 PM 71.6 °F - 32.0 °F 23% 30.13 in 10.0 mi WSW 8.1 mph - N/A   Clear
6:35 PM 71.6 °F - 32.0 °F 23% 30.13 in 10.0 mi SW 3.5 mph - N/A   Clear
6:55 PM 71.6 °F - 32.0 °F 23% 30.12 in 10.0 mi South 4.6 mph - N/A   Clear
7:15 PM 71.6 °F - 32.0 °F 23% 30.12 in 10.0 mi Calm Calm - N/A   Clear
7:35 PM 69.8 °F - 32.0 °F 25% 30.12 in 10.0 mi Calm Calm - N/A   Clear
7:55 PM 69.8 °F - 32.0 °F 25% 30.11 in 10.0 mi South 3.5 mph - N/A   Clear
8:15 PM 68.0 °F - 32.0 °F 26% 30.11 in 10.0 mi Calm Calm - N/A   Clear
8:35 PM 64.4 °F - 32.0 °F 30% 30.11 in 10.0 mi Calm Calm - N/A   Clear
8:55 PM 60.8 °F - 33.8 °F 36% 30.11 in 10.0 mi Calm Calm - N/A   Clear
9:15 PM 60.8 °F - 33.8 °F 36% 30.11 in 10.0 mi Calm Calm - N/A   Clear
9:35 PM 59.0 °F - 32.0 °F 36% 30.12 in 10.0 mi Calm Calm - N/A   Clear
9:55 PM 59.0 °F - 32.0 °F 36% 30.12 in 10.0 mi Calm Calm - N/A   Clear
10:15 PM 55.4 °F - 32.0 °F 41% 30.12 in 10.0 mi Calm Calm - N/A   Clear
10:35 PM 51.8 °F - 35.6 °F 54% 30.11 in 10.0 mi Calm Calm - N/A   Clear
10:55 PM 50.0 °F - 35.6 °F 58% 30.10 in 7.0 mi SE 3.5 mph - N/A   Clear
11:15 PM 50.0 °F - 35.6 °F 58% 30.10 in 10.0 mi ESE 3.5 mph - N/A   Clear
11:35 PM 51.8 °F - 35.6 °F 54% 30.09 in 10.0 mi Calm Calm - N/A   Clear
11:55 PM 48.2 °F - 35.6 °F 62% 30.09 in 10.0 mi Calm Calm - N/A   Clear